Flag for U.S.A. Weather past 2 weeks in Frankfort, Kentucky, U.S.A.

Now
73 °F

Light rain. Mostly cloudy.


Feels Like: 73 °F
Forecast: 70 / 81 °F
Wind: 6 mph from Northwest

Location: Capital City Airport

Current Time: Sep 2, 2014 at 9:15:03 AM

Latest Report: Sep 2, 2014 at 8:53 AM


Visibility: 10 mi

Pressure: 29.99 "Hg

Humidity: 79%

Dew point: 66 °F

Location of FrankfortLocation

Historic Weather in Frankfort — Graph

°F

Frankfort temperature yesterday

Maximum temperature yesterday: 84 °F (at 5:53 PM)
Minimum temperature yesterday: 73 °F (at 12:53 AM)
Average temperature yesterday: 78 °F

Past Weeks' High & Low Weather Summary

 TemperatureHumidityPressure
High90 °F (Aug 26, 3:53 PM)100% (Aug 18, 7:04 AM)30.14 "Hg (Aug 18, 7:04 AM)
Low68 °F (Aug 21, 3:53 AM)45% (Aug 29, 5:53 PM)29.79 "Hg (Aug 19, 5:53 PM)
Average77 °F81%29.99 "Hg
* Reported Aug 18 7:04 AM — Sep 2 7:53 AM, Frankfort, Weather by CustomWeather, © 2014

Note: Actual official high and low records may vary slightly from our data, if they occured in-between our weather recording intervals... More about our weather records

Advertising

Frankfort weather history for previous 24 hours

 ConditionsComfort  
Time TempWeatherWind HumidityBarometerVisibility
7:53 AM
Sep 2
75 °FPassing clouds.10 mph79%29.96 "Hg10 mi
6:53 AM74 °FClear.8 mph82%29.96 "Hg10 mi
5:53 AM75 °FPartly cloudy.8 mph82%29.98 "Hg10 mi
4:53 AM75 °FOvercast.8 mph82%29.96 "Hg10 mi
3:53 AM75 °FClear.8 mph82%29.96 "Hg10 mi
2:53 AM76 °FPassing clouds.9 mph80%29.96 "Hg10 mi
1:53 AM75 °FPassing clouds.7 mph88%29.96 "Hg10 mi
12:53 AM75 °FPassing clouds.7 mph90%29.97 "Hg10 mi
11:53 PM
Sep 1
75 °FClear.3 mph90%29.97 "Hg10 mi
10:53 PM75 °FClear.3 mph90%29.98 "Hg10 mi
9:53 PM77 °FClear.7 mph85%29.97 "Hg10 mi
8:53 PM77 °FSunny.5 mph85%29.96 "Hg10 mi
7:53 PM80 °FPartly sunny.6 mph76%29.95 "Hg10 mi
6:53 PM82 °FScattered clouds.7 mph74%29.94 "Hg10 mi
5:53 PM84 °FPassing clouds.9 mph70%29.93 "Hg10 mi
4:53 PM83 °FBroken clouds.10 mph70%29.93 "Hg10 mi
3:53 PM83 °FPassing clouds.15 mph68%29.93 "Hg10 mi
2:53 PM81 °FSunny.17 mph72%29.96 "Hg10 mi
1:53 PM83 °FPassing clouds.21 mph68%29.97 "Hg10 mi
12:53 PM82 °FBroken clouds.15 mph72%29.98 "Hg10 mi
11:53 AM82 °FBroken clouds.13 mph72%29.99 "Hg10 mi
11:04 AM79 °FBroken clouds.12 mph82%30.04 "Hg10 mi
10:53 AM79 °FScattered clouds.14 mph79%30.01 "Hg10 mi
10:03 AM76 °FMostly cloudy.12 mph88%30.04 "Hg10 mi
Weather by CustomWeather, © 2014

See weather overviewHow to use our weather pages